TimeCDT,TemperatureF,Dew PointF,Humidity,Sea Level PressureIn,VisibilityMPH,Wind Direction,Wind SpeedMPH,Gust SpeedMPH,PrecipitationIn,Events,Conditions,WindDirDegrees,DateUTC
12:53 AM,55.9,45.0,67,30.01,10.0,Calm,Calm,-,N/A,,Clear,0,2013-05-07 05:53:00
1:53 AM,55.9,46.9,72,30.01,10.0,SSE,3.5,-,N/A,,Clear,160,2013-05-07 06:53:00
2:53 AM,55.9,48.0,75,30.01,10.0,Calm,Calm,-,N/A,,Clear,0,2013-05-07 07:53:00
3:53 AM,52.0,46.9,83,30.01,10.0,Calm,Calm,-,N/A,,Clear,0,2013-05-07 08:53:00
4:53 AM,50.0,46.9,89,30.01,10.0,Calm,Calm,-,N/A,,Clear,0,2013-05-07 09:53:00
5:53 AM,50.0,45.0,83,30.03,10.0,ESE,3.5,-,N/A,,Clear,120,2013-05-07 10:53:00
6:53 AM,52.0,46.9,83,30.04,10.0,Calm,Calm,-,N/A,,Clear,0,2013-05-07 11:53:00
7:53 AM,55.9,48.9,77,30.06,10.0,Calm,Calm,-,N/A,,Clear,0,2013-05-07 12:53:00
8:53 AM,61.0,48.9,64,30.06,10.0,Calm,Calm,-,N/A,,Clear,0,2013-05-07 13:53:00
9:53 AM,66.0,46.0,48,30.04,10.0,Calm,Calm,-,N/A,,Clear,0,2013-05-07 14:53:00
10:53 AM,72.0,46.0,40,30.04,10.0,West,4.6,-,N/A,,Clear,280,2013-05-07 15:53:00
11:53 AM,73.0,45.0,37,30.03,10.0,South,5.8,-,N/A,,Clear,190,2013-05-07 16:53:00
12:53 PM,73.9,45.0,35,30.01,10.0,Calm,Calm,-,N/A,,Clear,0,2013-05-07 17:53:00
1:53 PM,75.9,39.0,26,29.99,10.0,SW,5.8,-,N/A,,Clear,220,2013-05-07 18:53:00
2:53 PM,79.0,39.0,24,29.97,10.0,SW,4.6,-,0.00,Rain,Light Rain,230,2013-05-07 19:53:00
3:53 PM,79.0,39.0,24,29.96,10.0,SSE,6.9,-,0.00,,Clear,160,2013-05-07 20:53:00
4:53 PM,79.0,37.0,22,29.96,10.0,SSW,4.6,-,N/A,,Clear,210,2013-05-07 21:53:00
5:53 PM,79.0,37.0,22,29.95,10.0,SSE,6.9,-,N/A,,Clear,160,2013-05-07 22:53:00
6:53 PM,77.0,42.1,29,29.95,10.0,SW,4.6,-,N/A,,Clear,220,2013-05-07 23:53:00
7:53 PM,71.1,43.0,36,29.95,10.0,Calm,Calm,-,N/A,,Clear,0,2013-05-08 00:53:00
8:53 PM,64.9,41.0,42,29.96,10.0,Calm,Calm,-,N/A,,Clear,0,2013-05-08 01:53:00
9:53 PM,64.0,46.0,52,29.97,10.0,Calm,Calm,-,N/A,,Clear,0,2013-05-08 02:53:00
10:53 PM,60.1,48.9,67,29.96,10.0,Calm,Calm,-,N/A,,Clear,0,2013-05-08 03:53:00
11:53 PM,59.0,46.9,64,29.96,10.0,SSE,3.5,-,N/A,,Clear,150,2013-05-08 04:53:00